�N����,����,�~����,�C��,���x,�C��,����,���ϕ���,�ő�u�ԕ���,�ő厞����,���˗�,�I�_���x,�n�����x,�ő啗���N��,DTYPE
"20/06/07","00:10",0.0,19.5,77.6,1002.4,304.5,0.7,1.6,319.6,0.00,15.5,22.1,"00:02:16",1
"20/06/07","00:20",0.0,19.5,77.6,1002.6,338.0,0.8,1.4,326.2,0.00,15.5,22.0,"00:10:08",1
"20/06/07","00:30",0.0,19.4,77.6,1002.6,287.8,0.7,1.3,323.2,0.00,15.4,22.0,"00:20:02",1
"20/06/07","00:40",0.0,19.2,77.7,1002.4,304.4,0.8,1.6,324.7,0.00,15.3,22.0,"00:34:56",1
"20/06/07","00:50",0.0,19.1,78.0,1002.6,340.6,1.0,1.9,337.0,0.00,15.2,21.9,"00:49:12",1
"20/06/07","01:00",0.0,18.9,78.3,1002.6,314.7,1.1,2.0,336.8,0.00,15.1,22.1,"00:55:44",1
"20/06/07","01:10",0.0,18.8,78.6,1002.6,284.2,0.7,1.2,265.3,0.00,15.0,21.8,"01:09:44",1
"20/06/07","01:20",0.0,18.7,78.9,1002.9,309.6,0.8,1.2,317.6,0.00,15.0,21.7,"01:13:52",1
"20/06/07","01:30",0.0,18.5,79.2,1002.9,288.2,0.7,1.6,343.9,0.00,14.9,21.6,"01:21:20",1
"20/06/07","01:40",0.0,18.5,79.6,1002.9,302.8,0.7,1.7,327.6,0.00,14.9,21.6,"01:36:40",1
"20/06/07","01:50",0.0,18.6,79.7,1002.6,283.0,0.6,1.1,353.3,0.00,15.1,21.5,"01:41:20",1
"20/06/07","02:00",0.0,18.3,79.9,1002.9,278.3,0.7,1.9,237.3,0.00,14.8,21.6,"01:56:56",1
"20/06/07","02:10",0.0,18.2,79.9,1003.1,295.8,0.7,1.4,324.3,0.00,14.7,21.4,"02:00:40",1
"20/06/07","02:20",0.0,18.2,80.0,1002.9,322.5,0.6,1.4,319.4,0.00,14.7,21.6,"02:18:32",1
"20/06/07","02:30",0.0,18.3,80.1,1002.6,274.5,1.0,1.9,241.2,0.00,14.9,21.4,"02:24:00",1
"20/06/07","02:40",0.0,18.3,79.8,1002.9,322.9,0.8,1.4,320.3,0.00,14.8,21.3,"02:37:36",1
"20/06/07","02:50",0.0,18.2,79.8,1002.9,332.0,0.8,1.4,348.0,0.00,14.7,21.4,"02:46:16",1
"20/06/07","03:00",0.0,17.9,79.6,1002.9,292.4,0.7,1.2,309.4,0.00,14.4,21.2,"02:57:44",1
"20/06/07","03:10",0.0,17.7,80.0,1002.9,316.6,0.7,1.3,318.7,0.00,14.2,21.0,"03:01:36",1
"20/06/07","03:20",0.0,17.5,80.9,1003.1,318.4,1.2,1.8,320.5,0.00,14.2,21.2,"03:12:16",1
"20/06/07","03:30",0.0,17.2,81.5,1003.1,303.2,1.0,1.7,333.0,0.00,14.0,20.9,"03:28:40",1
"20/06/07","03:40",0.0,16.9,82.3,1003.1,298.5,1.1,1.7,329.6,0.00,13.9,20.8,"03:38:40",1
"20/06/07","03:50",0.0,16.7,83.0,1003.4,314.7,1.2,2.2,322.5,0.00,13.8,20.7,"03:49:36",1
"20/06/07","04:00",0.0,16.8,83.4,1003.4,323.2,1.2,2.1,354.4,0.00,14.0,20.7,"03:50:56",1
"20/06/07","04:10",0.0,16.8,83.8,1003.8,323.8,1.2,2.1,341.2,0.00,14.1,20.5,"04:03:52",1
"20/06/07","04:20",0.0,16.6,83.9,1003.8,316.2,1.0,1.6,313.4,0.00,13.9,20.4,"04:10:08",1
"20/06/07","04:30",0.0,16.4,84.4,1003.6,333.9,1.1,1.9,335.1,0.00,13.8,20.6,"04:29:36",1
"20/06/07","04:40",0.0,16.1,84.7,1003.6,321.1,1.0,1.8,321.4,0.00,13.6,20.4,"04:33:12",1
"20/06/07","04:50",0.0,15.9,85.3,1003.8,329.3,1.2,1.9,330.4,0.00,13.5,20.2,"04:44:00",1
"20/06/07","05:00",0.0,15.7,85.8,1004.3,319.7,1.1,2.1,339.9,0.00,13.4,20.2,"04:58:00",1
"20/06/07","05:10",0.0,15.6,86.2,1004.3,311.0,1.2,1.7,323.2,0.00,13.3,20.0,"05:07:12",1
"20/06/07","05:20",0.0,15.7,86.8,1004.3,326.0,1.2,1.9,318.0,0.00,13.5,20.2,"05:17:04",1
"20/06/07","05:30",0.0,15.8,87.2,1004.1,315.8,1.0,1.4,327.7,0.00,13.7,19.8,"05:24:40",1
"20/06/07","05:40",0.0,16.2,87.6,1004.3,335.4,1.2,2.4,335.0,0.00,14.2,20.1,"05:37:04",1
"20/06/07","05:50",0.0,16.7,87.7,1004.1,321.1,1.3,2.5,337.0,0.02,14.7,19.8,"05:45:04",1
"20/06/07","06:00",0.0,17.7,86.9,1004.3,336.7,1.0,1.6,336.3,0.03,15.5,19.9,"05:52:56",1
"20/06/07","06:10",0.0,18.6,85.5,1004.8,337.2,1.1,1.8,338.4,0.05,16.2,20.1,"06:01:44",1
"20/06/07","06:20",0.0,19.2,83.0,1004.8,327.3,1.1,2.4,316.2,0.07,16.3,20.1,"06:19:04",1
"20/06/07","06:30",0.0,19.6,77.3,1005.0,336.4,2.5,5.0,343.1,0.08,15.6,20.2,"06:22:32",1
"20/06/07","06:40",0.0,20.5,72.4,1004.5,347.4,1.3,3.3,355.2,0.11,15.4,20.3,"06:31:36",1
"20/06/07","06:50",0.0,21.1,67.8,1004.5,4.0,1.6,4.2,342.4,0.13,15.0,20.2,"06:47:28",1
"20/06/07","07:00",0.0,21.4,65.4,1004.5,358.9,1.8,4.1,336.0,0.16,14.7,20.5,"06:58:24",1
"20/06/07","07:10",0.0,21.7,64.3,1004.5,1.4,2.0,4.9,353.9,0.18,14.7,20.6,"07:03:36",1
"20/06/07","07:20",0.0,21.8,62.6,1004.3,329.7,2.0,4.0,340.1,0.21,14.4,21.0,"07:19:20",1
"20/06/07","07:30",0.0,22.0,61.6,1004.3,346.1,2.8,7.4,22.4,0.24,14.3,20.8,"07:27:20",1
"20/06/07","07:40",0.0,22.2,60.9,1004.3,341.7,3.0,6.2,331.8,0.26,14.3,21.0,"07:35:04",1
"20/06/07","07:50",0.0,22.9,58.9,1004.3,349.9,2.3,5.8,323.5,0.29,14.5,21.1,"07:40:16",1
"20/06/07","08:00",0.0,23.4,56.9,1004.1,356.1,2.1,4.3,29.3,0.31,14.4,21.3,"07:51:20",1
"20/06/07","08:10",0.0,23.3,55.4,1003.8,346.1,2.5,5.0,37.3,0.33,13.9,21.5,"08:05:04",1
"20/06/07","08:20",0.0,23.6,55.0,1004.1,353.3,2.1,5.2,353.7,0.36,14.1,21.7,"08:11:04",1
"20/06/07","08:30",0.0,24.3,54.1,1004.3,27.8,1.2,3.6,343.3,0.38,14.5,21.9,"08:22:08",1
"20/06/07","08:40",0.0,24.8,51.0,1003.8,2.2,1.3,4.2,13.5,0.40,14.0,22.0,"08:37:44",1
"20/06/07","08:50",0.0,24.6,52.7,1003.8,4.4,2.3,5.5,347.2,0.43,14.3,22.4,"08:45:36",1
"20/06/07","09:00",0.0,24.9,51.5,1003.6,355.4,1.7,3.1,25.8,0.45,14.3,22.7,"08:56:08",1
"20/06/07","09:10",0.0,25.3,50.1,1003.6,6.8,1.5,3.6,342.1,0.47,14.2,22.9,"09:01:36",1
"20/06/07","09:20",0.0,25.0,48.6,1002.9,58.2,2.1,4.2,44.4,0.48,13.5,23.2,"09:14:48",1
"20/06/07","09:30",0.0,25.4,49.4,1002.9,26.0,2.0,4.8,342.2,0.50,14.1,23.6,"09:28:00",1
"20/06/07","09:40",0.0,26.0,46.3,1003.1,28.5,1.5,3.2,8.3,0.52,13.6,23.7,"09:31:28",1
"20/06/07","09:50",0.0,26.4,44.7,1003.4,29.2,1.3,6.2,339.7,0.53,13.5,24.0,"09:45:44",1
"20/06/07","10:00",0.0,26.9,44.8,1003.4,23.3,1.1,3.3,346.6,0.55,13.9,24.4,"09:53:20",1
"20/06/07","10:10",0.0,26.7,44.3,1003.4,39.9,1.6,3.3,52.4,0.56,13.6,24.7,"10:00:32",1
"20/06/07","10:20",0.0,26.8,43.5,1003.6,13.7,1.7,4.1,38.5,0.57,13.4,25.0,"10:12:40",1
"20/06/07","10:30",0.0,27.1,41.5,1003.8,23.9,1.3,3.6,350.3,0.58,13.0,25.2,"10:27:28",1
"20/06/07","10:40",0.0,27.3,41.3,1003.8,11.2,1.5,5.1,347.0,0.59,13.1,25.7,"10:39:44",1
"20/06/07","10:50",0.0,27.3,41.3,1003.6,5.3,1.8,5.0,348.2,0.60,13.1,26.0,"10:44:08",1
"20/06/07","11:00",0.0,27.4,41.9,1003.4,353.5,2.2,5.4,350.2,0.61,13.4,26.2,"10:57:28",1
"20/06/07","11:10",0.0,27.2,42.1,1003.6,346.6,2.2,5.6,333.9,0.61,13.3,26.5,"11:02:56",1
"20/06/07","11:20",0.0,27.2,40.6,1003.1,6.1,2.5,5.8,347.5,0.62,12.7,26.7,"11:11:20",1
"20/06/07","11:30",0.0,27.5,41.3,1003.1,353.5,2.3,4.9,341.2,0.62,13.2,27.0,"11:25:52",1
"20/06/07","11:40",0.0,27.7,41.9,1003.1,359.0,2.2,6.6,338.2,0.63,13.6,27.1,"11:34:48",1
"20/06/07","11:50",0.0,27.8,39.0,1003.1,20.5,2.1,5.7,332.6,0.63,12.6,27.2,"11:45:12",1
"20/06/07","12:00",0.0,28.1,38.3,1003.1,25.5,1.7,3.6,6.0,0.63,12.6,27.5,"11:59:36",1
"20/06/07","12:10",0.0,28.2,38.2,1003.6,333.6,1.7,5.4,348.9,0.63,12.7,27.9,"12:09:28",1
"20/06/07","12:20",0.0,28.2,39.3,1003.1,339.3,2.2,5.4,10.3,0.63,13.1,27.9,"12:12:16",1
"20/06/07","12:30",0.0,28.0,38.5,1003.4,343.2,2.8,7.4,338.0,0.63,12.6,28.0,"12:21:04",1
"20/06/07","12:40",0.0,27.9,38.1,1003.4,343.0,3.4,6.2,338.0,0.62,12.4,28.2,"12:30:16",1
"20/06/07","12:50",0.0,27.7,37.5,1002.9,347.1,3.7,7.3,309.3,0.62,11.9,28.0,"12:40:02",1
"20/06/07","13:00",0.0,27.5,36.6,1002.6,346.6,3.4,7.9,315.0,0.62,11.4,28.0,"12:59:28",1
"20/06/07","13:10",0.0,27.7,37.7,1003.4,344.1,3.1,7.5,338.4,0.61,12.0,27.6,"13:09:44",1
"20/06/07","13:20",0.0,28.3,37.3,1003.1,355.3,2.3,4.4,349.0,0.60,12.4,27.5,"13:15:12",1
"20/06/07","13:30",0.0,28.2,35.3,1003.1,330.7,3.0,5.7,349.6,0.59,11.5,27.4,"13:21:52",1
"20/06/07","13:40",0.0,28.1,35.7,1003.1,338.7,2.8,6.4,1.7,0.58,11.6,27.3,"13:37:44",1
"20/06/07","13:50",0.0,28.2,33.7,1002.9,334.5,3.0,7.3,338.1,0.57,10.8,27.0,"13:49:52",1
"20/06/07","14:00",0.0,28.0,34.3,1002.9,334.2,3.9,7.8,337.6,0.56,10.9,27.0,"13:54:40",1
"20/06/07","14:10",0.0,27.8,34.0,1003.1,341.5,3.6,8.7,324.3,0.55,10.6,27.0,"14:00:02",1
"20/06/07","14:20",0.0,27.7,34.9,1002.6,343.4,3.9,7.4,331.8,0.54,10.9,27.0,"14:10:08",1
"20/06/07","14:30",0.0,27.8,34.0,1002.6,339.3,3.4,6.7,344.6,0.52,10.6,27.0,"14:22:16",1
"20/06/07","14:40",0.0,27.9,33.9,1002.2,345.8,3.7,6.5,347.8,0.50,10.6,27.2,"14:34:32",1
"20/06/07","14:50",0.0,27.7,34.8,1002.4,342.0,4.2,8.0,333.9,0.48,10.8,27.1,"14:40:16",1
"20/06/07","15:00",0.0,27.8,36.1,1002.4,343.5,3.6,8.0,326.8,0.47,11.5,27.1,"14:56:08",1
"20/06/07","15:10",0.0,27.4,34.5,1001.9,341.8,4.0,7.3,343.9,0.45,10.4,27.0,"15:02:56",1
"20/06/07","15:20",0.0,27.4,35.3,1001.9,334.0,4.1,8.1,334.1,0.43,10.8,27.0,"15:14:56",1
"20/06/07","15:30",0.0,27.5,35.2,1002.2,340.4,4.0,7.5,350.1,0.41,10.8,27.0,"15:23:20",1
"20/06/07","15:40",0.0,27.3,35.5,1002.2,339.8,4.1,7.9,335.0,0.38,10.8,26.9,"15:34:32",1
"20/06/07","15:50",0.0,27.2,35.4,1001.9,343.4,3.5,7.9,333.5,0.36,10.6,26.9,"15:46:24",1
"20/06/07","16:00",0.0,27.0,36.0,1001.9,340.5,4.0,7.0,12.9,0.34,10.7,26.9,"15:57:44",1
"20/06/07","16:10",0.0,27.0,36.7,1002.2,340.8,3.7,6.8,344.6,0.32,11.0,26.8,"16:02:32",1
"20/06/07","16:20",0.0,27.0,34.8,1002.6,342.3,3.6,7.3,345.8,0.29,10.2,26.7,"16:12:56",1
"20/06/07","16:30",0.0,27.2,35.4,1002.4,353.6,2.8,5.2,340.7,0.27,10.6,26.7,"16:23:12",1
"20/06/07","16:40",0.0,26.9,35.3,1002.4,339.1,3.5,7.8,350.0,0.24,10.3,26.8,"16:34:40",1
"20/06/07","16:50",0.0,26.6,34.3,1002.2,338.7,3.7,6.6,341.8,0.08,9.6,26.5,"16:40:24",1
"20/06/07","17:00",0.0,26.4,35.6,1002.4,343.3,3.7,8.7,333.6,0.00,10.0,26.6,"16:58:16",1
"20/06/07","17:10",0.0,26.3,35.9,1002.4,338.4,3.7,7.4,345.2,0.00,10.1,26.5,"17:00:32",1
"20/06/07","17:20",0.0,26.2,35.9,1002.4,340.1,3.4,8.8,316.6,0.00,10.0,26.5,"17:15:52",1
"20/06/07","17:30",0.0,26.0,36.7,1002.6,338.9,3.2,6.2,330.9,0.00,10.1,26.5,"17:29:36",1
"20/06/07","17:40",0.0,25.6,37.2,1002.6,343.1,3.5,6.8,333.8,0.00,10.0,26.5,"17:36:32",1
"20/06/07","17:50",0.0,25.4,37.2,1002.6,338.9,3.6,7.0,327.7,0.00,9.8,26.2,"17:45:36",1
"20/06/07","18:00",0.0,25.1,38.0,1003.1,333.1,3.7,8.3,344.6,0.00,9.8,26.2,"17:53:20",1
"20/06/07","18:10",0.0,24.9,38.4,1002.9,328.9,3.7,6.6,323.3,0.00,9.8,25.9,"18:03:12",1
"20/06/07","18:20",0.0,24.4,39.5,1003.4,334.4,3.1,5.6,325.9,0.01,9.8,25.7,"18:17:12",1
"20/06/07","18:30",0.0,23.9,41.0,1003.8,340.9,3.2,6.7,311.4,0.00,9.9,25.6,"18:23:12",1
"20/06/07","18:40",0.0,23.5,42.9,1004.1,334.8,3.0,7.3,339.0,0.00,10.2,25.4,"18:33:12",1
"20/06/07","18:50",0.0,23.1,43.7,1004.1,342.2,2.6,4.8,350.2,0.00,10.1,25.2,"18:46:00",1
"20/06/07","19:00",0.0,22.7,44.9,1004.1,335.0,2.6,4.7,334.3,0.00,10.2,25.2,"18:50:16",1
"20/06/07","19:10",0.0,22.5,45.0,1004.5,335.2,3.4,6.6,324.4,0.00,10.0,24.9,"19:09:52",1
"20/06/07","19:20",0.0,22.2,46.7,1004.3,339.2,3.2,5.7,345.3,0.00,10.3,24.8,"19:15:28",1
"20/06/07","19:30",0.0,21.9,48.1,1004.8,331.1,3.5,7.2,336.8,0.00,10.5,24.5,"19:28:16",1
"20/06/07","19:40",0.0,21.6,50.1,1005.0,336.2,4.0,6.8,322.3,0.00,10.8,24.3,"19:34:40",1
"20/06/07","19:50",0.0,21.3,52.1,1005.0,328.9,3.7,6.8,330.3,0.00,11.1,24.0,"19:48:56",1
"20/06/07","20:00",0.0,21.0,52.8,1005.0,333.2,3.7,6.3,324.6,0.00,11.0,23.9,"19:53:28",1
"20/06/07","20:10",0.0,20.8,52.0,1005.0,338.3,3.1,6.2,343.7,0.00,10.6,24.0,"20:07:20",1
"20/06/07","20:20",0.0,20.5,51.5,1005.5,343.7,2.7,6.5,350.7,0.00,10.2,23.8,"20:15:28",1
"20/06/07","20:30",0.0,20.4,51.9,1006.2,349.3,2.3,4.7,320.0,0.00,10.2,23.6,"20:26:00",1
"20/06/07","20:40",0.0,20.1,53.0,1005.7,334.2,1.7,3.9,325.8,0.00,10.3,23.4,"20:38:24",1
"20/06/07","20:50",0.0,19.8,54.1,1006.7,324.0,1.3,2.7,343.9,0.00,10.3,23.4,"20:45:28",1
"20/06/07","21:00",0.0,19.2,56.1,1006.7,308.4,1.2,1.9,330.1,0.00,10.3,23.2,"20:54:00",1
"20/06/07","21:10",0.0,18.6,57.4,1006.4,288.0,1.1,1.7,263.6,0.00,10.1,23.2,"21:00:24",1
"20/06/07","21:20",0.0,18.0,59.4,1006.7,276.0,1.3,1.9,265.5,0.00,10.0,22.9,"21:10:24",1
"20/06/07","21:30",0.0,17.6,61.2,1006.7,282.5,1.2,2.1,311.8,0.00,10.1,22.7,"21:24:00",1
"20/06/07","21:40",0.0,17.4,62.6,1007.1,299.2,1.3,2.1,315.2,0.00,10.2,22.5,"21:35:20",1
"20/06/07","21:50",0.0,17.5,64.0,1007.1,322.2,1.7,4.2,337.5,0.00,10.7,22.4,"21:46:16",1
"20/06/07","22:00",0.0,17.7,63.2,1007.4,301.9,1.7,2.9,307.2,0.00,10.7,22.2,"21:55:12",1
"20/06/07","22:10",0.0,17.7,63.6,1007.6,312.5,1.7,3.4,333.1,0.00,10.8,22.0,"22:07:44",1
"20/06/07","22:20",0.0,17.7,63.7,1007.8,314.5,1.6,3.4,332.3,0.00,10.8,21.8,"22:14:08",1
"20/06/07","22:30",0.0,17.9,64.3,1007.8,312.8,2.6,4.8,330.9,0.00,11.1,21.9,"22:29:20",1
"20/06/07","22:40",0.0,18.1,63.7,1008.1,332.8,2.6,4.0,347.7,0.00,11.2,21.9,"22:35:12",1
"20/06/07","22:50",0.0,18.1,63.7,1007.8,323.1,2.8,4.5,337.4,0.00,11.2,21.6,"22:48:16",1
"20/06/07","23:00",0.0,18.1,63.7,1007.8,327.3,2.7,4.2,328.2,0.00,11.2,21.7,"22:50:16",1
"20/06/07","23:10",0.0,17.9,64.2,1008.1,311.9,2.2,4.2,334.0,0.00,11.1,21.7,"23:04:16",1
"20/06/07","23:20",0.0,17.7,65.7,1008.1,318.7,2.2,3.7,345.8,0.00,11.2,21.5,"23:15:20",1
"20/06/07","23:30",0.0,17.5,67.2,1008.1,326.9,2.6,4.0,328.6,0.00,11.4,21.4,"23:25:04",1
"20/06/07","23:40",0.0,17.4,68.4,1008.3,330.0,2.5,4.5,341.1,0.00,11.6,21.4,"23:36:24",1
"20/06/07","23:50",0.0,17.2,69.6,1007.8,334.1,2.2,3.9,341.8,0.00,11.6,21.2,"23:41:28",1
"20/06/07","24:00",0.0,16.9,71.0,1008.1,339.5,1.6,3.2,344.5,0.00,11.7,21.2,"23:50:16",1
